www.pogodaiklimat.ru

Погода и климат >> Архив погоды >> Норвегия >> Намсскуган


ПОГОДА в Намсскугане

  • Прогноз погоды в Намсскугане
  • Монитор погоды в Намсскугане

АРХИВ ПОГОДЫ в Намсскугане

Время (UTC), дата Ветер
(напр.,м/с)
 
Видим.   Явления Облачность Т
(С)
Тd
(С)
f
(%)
Тe
(С)
Тes
(С)
Комфортность P
(гПа)
Po
(гПа)
Тmin
(С)
Tmax
(С)
R
(мм)
R24
(мм)
S
(см)
19 10.06 З 4-7
{7}
н/о н/о +11.1 +4.6 64 +9 +9 1020.6 1003.4
20 10.06 З 3-5
{6}
н/о н/о +10.0 +4.6 69 +8 +8 1021.5 1004.2
21 10.06 З 3-4
{6}
н/о н/о +9.4 +4.4 71 +7 +7 1022.2 1004.9
22 10.06 З 3-4
{5}
н/о н/о +8.8 +4.4 74 +6 +6 1023.1 1005.7
23 10.06 ЮЗ 2-4
{6}
н/о н/о +8.3 +4.0 74 +7 +7 1023.6 1006.1
00 11.06 СЗ 1-2
{7}
н/о н/о +8.3 +3.8 73 +8 +8 1024.3 1006.8
01 11.06 СЗ 2-3
{3}
н/о н/о +7.6 +3.7 76 +6 +6 1024.7 1007.2
02 11.06 СЗ 1-2
{4}
н/о н/о +7.0 +4.3 83 +6 +6 1025.1 1007.5
03 11.06 штиль 0-1
{2}
н/о н/о +6.9 +4.1 82 +6 +6 1025.5 1007.9
04 11.06 З 2-3
{4}
н/о н/о +7.6 +2.1 68 +6 +6 1025.9 1008.3
05 11.06 З 2-4
{4}
н/о н/о +7.8 +1.7 65 +6 +6 1026.5 1008.9
06 11.06 В 1-3
{4}
н/о н/о +7.9 +2.0 66 +7 +7 1027.2 1009.7 +6.9 +12.3
07 11.06 СВ 1-3
{3}
н/о н/о +8.6 +2.2 64 +8 +8 1027.8 1010.3
08 11.06 В 1-2
{3}
н/о н/о +9.3 +1.7 59 +9 +9 1028.2 1010.7
09 11.06 В 2-4
{4}
н/о н/о +10.5 +2.9 59 +9 +9 1028.4 1011.0
10 11.06 С 2-4
{5}
н/о н/о +12.2 +2.7 52 +12 +12 1028.3 1011.0
11 11.06 СВ 3-6
{6}
н/о н/о +12.1 +2.6 52 +11 +11 1028.1 1010.8
12 11.06 В 3-4
{6}
н/о н/о +13.8 +4.4 53 +13 +13 1027.8 1010.7
13 11.06 С 2-5
{6}
н/о н/о +14.1 +3.3 48 +14 +14 1027.9 1010.7
14 11.06 СЗ 2-5
{5}
н/о н/о +14.9 +3.1 45 +15 +15 1027.6 1010.5
15 11.06 С 2-4
{7}
н/о н/о +15.4 +3.6 45 +15 +15 1027.7 1010.6
16 11.06 С 2-4
{5}
н/о н/о +15.6 +2.8 42 +16 +16 1027.7 1010.6
17 11.06 С 3-4
{5}
н/о н/о +15.6 +2.4 41 +15 +15 1027.6 1010.5
18 11.06 С 2-4
{7}
н/о н/о +15.4 +2.9 43 +15 +15 1027.8 1010.7 +7.9 +16.2
19 11.06 С 2-4
{4}
н/о н/о +14.4 +3.3 47 +14 +14 1028.0 1010.8
20 11.06 С 2-4
{4}
н/о н/о +11.8 +3.3 56 +11 +11 1028.3 1011.0
21 11.06 С 1-2
{4}
н/о н/о +9.7 +4.1 68 +9 +9 1028.7 1011.3
22 11.06 штиль 0
{2}
н/о н/о +5.7 +3.6 86 +5 +5 1029.1 1011.4
23 11.06 СВ 1-2
{2}
н/о н/о +4.2 +2.9 91 +3 +3 1029.3 1011.5
00 12.06 В 1-1
{4}
н/о н/о +2.8 +1.8 93 +1 +1 1029.5 1011.6 0.3
01 12.06 СВ 2-3
{3}
н/о н/о +2.0 +1.0 93 -1 -1 1029.6 1011.7
02 12.06 СВ 2-4
{4}
н/о н/о +4.3 +3.6 95 +1 +1 1029.3 1011.5
03 12.06 СВ 2-4
{5}
н/о н/о +5.9 +3.1 82 +4 +4 1029.1 1011.4
04 12.06 С 2-4
{7}
н/о н/о +8.7 +4.0 72 +7 +7 1028.5 1011.0
05 12.06 В 5-7
{7}
н/о н/о +11.1 +4.3 63 +9 +9 1028.3 1010.9
06 12.06 В 4-6
{9}
н/о н/о +12.6 +5.8 63 +11 +11 1027.9 1010.6 +2.0 +15.3 0.3
07 12.06 В 5-9
{9}
н/о н/о +13.6 +5.5 58 +12 +12 1027.8 1010.6
08 12.06 В 5-8
{8}
н/о н/о +15.3 +5.8 53 +14 +14 1027.1 1010.0
09 12.06 ЮВ 3-5
{8}
н/о н/о +16.5 +5.5 48 +16 +16 1026.2 1009.2
10 12.06 В 4-6
{7}
н/о н/о +18.5 +6.7 46 +19 +19 1025.6 1008.7
11 12.06 ЮВ 4-6
{8}
н/о н/о +16.8 +5.1 46 +16 +16 1025.4 1008.5
12 12.06 ЮВ 4-6
{9}
н/о н/о +19.0 +6.8 45 +19 +19 1024.5 1007.6
13 12.06 ЮВ 3-5
{8}
н/о н/о +17.4 +4.7 43 +17 +17 1023.7 1006.8
14 12.06 ЮВ 3-6
{6}
н/о н/о +17.2 +5.2 45 +17 +17 1023.2 1006.3
15 12.06 ЮВ 3-6
{7}
н/о н/о +17.0 +4.4 43 +17 +17 1022.7 1005.8
16 12.06 ЮВ 4-7
{7}
н/о н/о +16.7 +3.8 42 +16 +16 1022.5 1005.6
17 12.06 ЮВ 4-6
{8}
н/о н/о +15.6 +2.1 40 +15 +15 1022.5 1005.5
18 12.06 ЮВ 3-6
{8}
н/о н/о +14.7 +1.6 41 +14 +14 1022.6 1005.6 +12.4 +19.3
19 12.06 ЮВ 3-7
{7}
н/о н/о +14.2 +0.8 40 +14 +14 1022.2 1005.1
20 12.06 ЮВ 2-4
{7}
н/о н/о +13.6 +0.3 40 +13 +13 1021.9 1004.8
21 12.06 ЮВ 2-6
{7}
н/о н/о +12.8 +0.6 43 +12 +12 1021.4 1004.3
22 12.06 СВ 2-3
{3}
н/о н/о +12.5 +0.9 45 +12 +12 1021.0 1003.8
23 12.06 В 2-4
{7}
н/о н/о +12.0 +0.5 45 +11 +11 1020.9 1003.7
00 13.06 В 3-7
{8}
н/о н/о +11.3 +0.4 47 +10 +10 1020.5 1003.3
01 13.06 СВ 4-9
{9}
н/о н/о +10.3 +1.2 53 +8 +8 1020.4 1003.1
02 13.06 СВ 4-7
{8}
н/о н/о +9.2 +1.9 60 +7 +7 1020.4 1003.0
03 13.06 В 4-7
{11}
н/о н/о +7.9 +2.8 70 +5 +5 1020.3 1002.9
04 13.06 В 5-10
{10}
н/о н/о +7.7 +3.8 76 +4 +4 1020.0 1002.6
05 13.06 В 4-6
{10}
н/о н/о +8.1 +4.0 75 +5 +5 1019.5 1002.1
06 13.06 СВ 4-9
{11}
н/о н/о +9.2 +3.2 66 +7 +7 1018.7 1001.4 +7.4 +14.7 1
07 13.06 В 4-9
{9}
н/о н/о +9.8 +3.1 63 +7 +7 1018.6 1001.3
08 13.06 СВ 2-5
{9}
н/о н/о +10.9 +3.2 59 +10 +10 1017.9 1000.7
09 13.06 В 4-7
{8}
н/о н/о +11.9 +4.2 59 +10 +10 1017.2 1000.1
10 13.06 СВ 4-8
{8}
н/о н/о +13.1 +4.8 57 +12 +12 1016.8 999.7
11 13.06 СВ 4-8
{8}
н/о н/о +13.4 +5.3 58 +12 +12 1016.9 999.9
12 13.06 В 4-8
{10}
н/о н/о +13.6 +6.0 60 +12 +12 1016.7 999.7
13 13.06 СВ 5-10
{13}
н/о н/о +12.2 +7.1 71 +10 +10 1017.6 1000.5
14 13.06 СВ 6-9
{10}
н/о н/о +11.6 +7.5 76 +9 +9 1017.4 1000.3
15 13.06 СВ 5-10
{11}
н/о н/о +11.0 +8.1 82 +8 +8 1017.5 1000.3
16 13.06 СВ 4-9
{12}
н/о н/о +11.5 +7.8 78 +9 +9 1017.5 1000.3
17 13.06 В 6-14
{14}
н/о н/о +12.0 +7.3 73 +9 +9 1017.0 999.9
18 13.06 В 6-11
{14}
н/о н/о +12.0 +6.7 70 +9 +9 1017.4 1000.2 +9.2 +14.0 4
19 13.06 В 5-11
{12}
н/о н/о +11.9 +6.6 70 +10 +10 1017.6 1000.5
20 13.06 В 6-10
{13}
н/о н/о +11.8 +6.1 68 +9 +9 1017.9 1000.8
21 13.06 СВ 6-11
{11}
н/о н/о +11.5 +5.8 68 +9 +9 1018.2 1001.0
22 13.06 СВ 6-11
{11}
н/о н/о +10.8 +6.4 74 +8 +8 1019.0 1001.7
23 13.06 СВ 4-8
{10}
н/о н/о +10.3 +6.8 79 +8 +8 1019.5 1002.2
00 14.06 СВ 3-6
{13}
н/о н/о +9.9 +7.3 84 +8 +8 1019.6 1002.3 0.2
01 14.06 В 3-5
{6}
н/о н/о +9.5 +7.6 88 +7 +7 1019.6 1002.3
02 14.06 СВ 4-6
{6}
н/о н/о +9.6 +7.7 88 +7 +7 1019.3 1002.0
03 14.06 СВ 1-3
{5}
н/о н/о +9.7 +8.0 89 +9 +9 1019.2 1001.9
04 14.06 СВ 3-6
{8}
н/о н/о +10.4 +7.8 84 +8 +8 1018.7 1001.4
05 14.06 В 3-5
{6}
н/о н/о +10.4 +8.0 85 +8 +8 1018.8 1001.6
06 14.06 СВ 2-4
{8}
н/о н/о +11.0 +8.8 86 +10 +10 1019.0 1001.8 +9.5 +12.1 2
07 14.06 В 2-4
{4}
н/о н/о +11.5 +8.5 82 +10 +10 1018.9 1001.7
08 14.06 В 2-3
{8}
н/о н/о +11.6 +8.5 81 +10 +10 1019.3 1002.1
09 14.06 В 3-5
{6}
н/о н/о +11.5 +8.2 80 +10 +10 1019.6 1002.4
10 14.06 СВ 3-6
{6}
н/о н/о +11.8 +8.3 79 +10 +10 1019.4 1002.2
11 14.06 В 4-5
{6}
н/о н/о +13.1 +8.8 75 +11 +11 1019.3 1002.2
12 14.06 В 5-8
{8}
н/о н/о +13.2 +8.3 72 +11 +11 1019.0 1001.9
13 14.06 В 5-7
{7}
н/о н/о +13.3 +8.4 72 +11 +11 1018.6 1001.5
14 14.06 В 3-6
{8}
н/о н/о +13.7 +8.8 72 +13 +13 1018.2 1001.1
15 14.06 В 2-4
{6}
н/о н/о +13.0 +9.3 78 +12 +12 1017.9 1000.9
16 14.06 СВ 2-3
{4}
н/о н/о +12.4 +9.6 83 +11 +11 1017.8 1000.7
17 14.06 СВ 2-4
{5}
н/о н/о +11.6 +9.7 88 +10 +10 1018.0 1000.9
18 14.06 СВ 1-3
{8}
н/о н/о +11.3 +9.7 90 +11 +11 1017.9 1000.7 +10.9 +13.8 4
19 14.06 С 1-1
{3}
н/о н/о +11.3 +9.9 91 +11 +11 1017.8 1000.6
20 14.06 СВ 1-3
{3}
н/о н/о +11.2 +9.8 91 +11 +11 1017.8 1000.6
21 14.06 штиль 0-1
{2}
н/о н/о +10.9 +9.7 92 +10 +10 1017.9 1000.7
22 14.06 штиль 0
{2}
н/о н/о +10.7 +9.6 93 +10 +10 1017.6 1000.3
23 14.06 В 1-2
{2}
н/о н/о +10.6 +9.7 94 +10 +10 1017.9 1000.7
00 15.06 штиль 0
{3}
н/о н/о +10.5 +9.6 94 +10 +10 1018.2 1001.0 5
01 15.06 штиль 0
{2}
н/о н/о +10.4 +9.5 94 +10 +10 1018.1 1000.9
02 15.06 З 1-2
{2}
н/о н/о +10.5 +9.7 95 +10 +10 1018.0 1000.7
03 15.06 штиль 0
{1}
н/о н/о +10.5 +9.7 95 +10 +10 1018.0 1000.7
04 15.06 штиль 0-1
{2}
н/о н/о +10.6 +9.8 95 +10 +10 1018.1 1000.8
05 15.06 штиль 0-1
{2}
н/о н/о +10.9 +10.1 95 +10 +10 1018.2 1001.0
06 15.06 штиль 0
{2}
н/о н/о +11.5 +10.7 95 +11 +11 1018.3 1001.1 +10.4 +11.5 5
07 15.06 штиль 0
{2}
н/о н/о +12.0 +11.1 94 +11 +11 1018.6 1001.4
08 15.06 штиль 0
{1}
н/о н/о +13.2 +11.3 88 +13 +13 1018.8 1001.7
09 15.06 З 1-2
{2}
н/о н/о +14.3 +11.1 81 +15 +15 1019.1 1002.0
10 15.06 ЮЗ 2-3
{3}
н/о н/о +15.0 +11.2 78 +15 +15 1019.3 1002.4
11 15.06 ЮЗ 3-4
{5}
н/о н/о +16.5 +12.1 75 +16 +16 1019.0 1002.1
12 15.06 СЗ 2-4
{5}
н/о н/о +17.2 +11.7 70 +18 +18 1019.0 1002.1
13 15.06 ЮВ 1-2
{3}
н/о н/о +17.8 +12.3 70 +19 +19 1018.8 1002.0
14 15.06 В 2-3
{4}
н/о н/о +17.2 +11.9 71 +18 +18 1018.4 1001.6
15 15.06 СВ 1-1
{2}
н/о н/о +17.2 +11.9 71 +18 +18 1018.3 1001.4
16 15.06 штиль 0-1
{2}
н/о н/о +18.6 +12.6 68 +19 +19 1017.6 1000.9
17 15.06 штиль 0-1
{2}
н/о н/о +18.9 +12.0 64 +20 +20 1017.2 1000.5
18 15.06 штиль 0-1
{4}
н/о н/о +18.2 +11.8 66 +18 +18 1017.1 1000.3 +11.4 +19.1
19 15.06 штиль 0
{1}
н/о н/о +17.5 +14.0 80 +17 +17 1016.7 999.9
20 15.06 штиль 0 н/о н/о +17.7 +14.2 80 +18 +18 1016.5 999.7
21 15.06 В 1-2
{2}
н/о н/о +14.8 +12.5 86 +15 +15 1016.6 999.6
22 15.06 С 1-2
{3}
н/о н/о +13.6 +11.0 84 +14 +14 1016.6 999.6
23 15.06 штиль 0-1
{1}
н/о н/о +10.6 +9.0 90 +10 +10 1016.8 999.6
00 16.06 СВ 1-2
{3}
н/о н/о +9.0 +7.9 93 +8 +8 1016.7 999.4
01 16.06 штиль 0
{1}
н/о н/о +8.0 +6.9 93 +7 +7 1016.2 998.8
02 16.06 В 1-1
{2}
н/о н/о +7.7 +6.8 94 +7 +7 1016.0 998.7
03 16.06 штиль 0-1
{2}
н/о н/о +9.0 +8.1 94 +8 +8 1015.5 998.2
04 16.06 СВ 1-2
{3}
н/о н/о +12.2 +10.8 91 +12 +12 1015.2 998.1
05 16.06 С 2-3
{5}
н/о н/о +13.9 +10.9 82 +13 +13 1014.3 997.3
06 16.06 С 2-4
{5}
н/о н/о +16.1 +11.3 73 +16 +16 1013.6 996.8 +7.3 +18.2
07 16.06 СВ 2-3
{4}
н/о н/о +18.8 +11.9 64 +20 +20 1013.2 996.5
08 16.06 СВ 1-3
{3}
н/о н/о +21.0 +12.7 59 +25 +25 комфорт 1012.4 995.9
09 16.06 -3
{5}
н/о н/о +22.7 +11.8 50 1011.7 995.3
10 16.06 В 2-3
{4}
н/о н/о +24.2 +13.4 51 +26 +26 жарко 1010.9 994.6
11 16.06 З 2-3
{3}
н/о н/о +25.2 +13.4 48 +27 +27 жарко 1010.6 994.4
12 16.06 Ю 2-4
{5}
н/о н/о +25.5 +12.0 43 +27 +27 жарко 1010.1 993.9
13 16.06 ЮЗ 2-4
{5}
н/о н/о +25.9 +10.5 38 +27 +27 жарко 1009.5 993.3
14 16.06 Ю 3-6
{6}
н/о н/о +26.2 +10.8 38 +27 +27 жарко 1009.0 992.8
15 16.06 ЮЗ 2-5
{6}
н/о н/о +26.2 +9.5 35 +27 +27 жарко 1008.7 992.5
16 16.06 ЮЗ 2-5
{5}
н/о н/о +25.8 +9.2 35 +26 +26 жарко 1008.4 992.1
17 16.06 З 1-2
{4}
н/о н/о +27.6 +10.3 34 +28 +28 жарко 1007.9 991.8
18 16.06 СЗ 4-7
{7}
н/о н/о +24.2 +11.2 44 +26 +26 жарко 1008.3 992.0 +16.2 +27.8
19 16.06 ЮЗ 4-6
{8}
н/о н/о +22.7 +9.8 44 +24 +24 комфорт 1009.1 992.7
20 16.06 ЮЗ 2-4
{6}
н/о н/о +20.3 +10.4 53 +22 +22 комфорт 1009.8 993.3
21 16.06 З 2-4
{4}
н/о н/о +19.3 +10.3 56 +21 +21 комфорт 1010.2 993.6
22 16.06 ЮЗ 2-4
{4}
н/о н/о +17.8 +8.9 56 +18 +18 1010.5 993.8
23 16.06 ЮЗ 3-4
{5}
н/о н/о +16.8 +9.7 63 +17 +17 1010.9 994.1
00 17.06 ЮЗ 3-5
{8}
н/о н/о +15.3 +9.9 70 +15 +15 1011.1 994.3 0.4
01 17.06 ЮЗ 3-4
{6}
н/о н/о +14.4 +10.4 77 +13 +13 1011.3 994.5
02 17.06 ЮЗ 4-6
{6}
н/о н/о +13.8 +10.4 80 +12 +12 1012.0 995.1
03 17.06 ЮЗ 2-4
{5}
н/о н/о +13.3 +9.9 80 +13 +13 1012.1 995.2
04 17.06 З 4-6
{6}
н/о н/о +13.3 +9.4 77 +12 +12 1011.9 995.0
05 17.06 З 3-5
{6}
н/о н/о +12.6 +9.8 83 +11 +11 1012.3 995.3
06 17.06 СЗ 3-4
{6}
н/о н/о +12.4 +9.8 84 +11 +11 1012.6 995.5 +12.3 +24.2 0.4
07 17.06 З 2-3
{5}
н/о н/о +12.3 +9.5 83 +11 +11 1012.7 995.7
08 17.06 З 2-4
{5}
н/о н/о +12.5 +9.0 79 +12 +12 1013.0 996.0
09 17.06 ЮЗ 3-6
{6}
н/о н/о +12.3 +8.6 78 +11 +11 1013.2 996.2
10 17.06 Ю 3-4
{5}
н/о н/о +11.8 +9.7 87 +10 +10 1013.4 996.3
11 17.06 ЮЗ 2-4
{5}
н/о н/о +12.0 +9.2 83 +11 +11 1013.5 996.4
12 17.06 ЮЗ 2-5
{6}
н/о н/о +11.7 +9.3 85 +11 +11 1013.8 996.7
13 17.06 ЮЗ 2-4
{4}
н/о н/о +11.9 +9.1 83 +11 +11 1013.5 996.5
14 17.06 ЮЗ 3-4
{5}
н/о н/о +12.3 +8.8 79 +11 +11 1013.6 996.5
15 17.06 ЮЗ 2-3
{5}
н/о н/о +12.5 +8.6 77 +12 +12 1013.4 996.3
16 17.06 З 1 н/о н/о +13.1 +9.0 76 +13 +13 1012.9 995.9
17 17.06 З 2-4
{4}
н/о н/о +15.0 +9.2 68 +15 +15 1012.4 995.5
18 17.06 З 1-2
{5}
н/о н/о +15.2 +9.1 67 +16 +16 1011.8 995.0 +11.5 +15.2

 

Местоположение метеостанции Намсскуган (Норвегия): широта 64.74 долгота 12.85 высота над уровнем моря 140 м.

В архиве по умолчанию представлена погода в Намсскугане за последнюю неделю. Архивные данные за месяц целиком и за предыдущие месяцы, начиная с января 2011 года, Вы можете получить, выбрав интересующий диапазон дат из раскрывающегося списка и нажав кнопку "Ввод!".


*Определитесь, кто Вы:
робот инопланетянин человек

Внимание! Время в таблицах - всемирное. Для получения местного времени необходимо прибавить поправку, которая равна 1 ч.

Смотрите также архив погоды в соседних городах и на ближайших метеорологических станциях:

Погода в Гартлэнде (Норвегия) (32 км)
Погода в Маяватн (Норвегия) (54 км)
Погода на Сомна-Квалёйа (Норвегия) (67 км)
Погода в Снаса-Кжевя (Норвегия) (67 км)
Погода в Намсос аэропорту (Норвегия) (68 км)
Погода в Аддеде (Швеция) (71 км)
Погода в Рорвик аэропорту (Норвегия) (82 км)
Погода в Брённёйсунн аэропорту (Норвегия) (85 км)
Погода в Стекенйокке (Швеция) (88 км)
Погода в Лаксфорсе (Норвегия) (100 км)

Пояснения к столбцам:

Ветер - указаны скорость ветра в м/с - средняя за 10 мин, порывы в срок и между сроками (в фигурных скобках) и направление, откуда дует ветер: С - северный, СВ - северо-восточный, В - восточный, ЮВ - юго-восточный, Ю - южный, ЮЗ - юго-западный, З - западный, СЗ - северо-западный.
Видимость - горизонтальная дальность видимости в метрах или километрах. При видимости от 1 до 10 км при отсутствии осадков обычно наблюдается дымка, при ухудшении видимости до 1 км и менее - туман. В сухую погоду видимость может ухудшаться дымом, пылью или мглою.
Явления - указаны атмосферные явления, наблюдавшиеся в срок или в последний час перед сроком; фигурными скобками обозначены явления, наблюдавшиеся между сроками (за 1-3 часа до срока); квадратными скобками обозначены град или гололедные отложения с указанием их диаметра в мм.
Облачность - указаны через наклонную черту общая и нижняя облачность в баллах и высота нижней границы облаков в метрах; квадратными скобками обозначены формы облаков: Ci - перистые, Cs - перисто-слоистые, Cc - перисто-кучевые, Ac - высококучевые, As - высокослоистые, Sc - слоисто-кучевые, Ns - слоисто-дождевые, Cu - кучевые, Cb - кучево-дождевые. Подробнее классификацию облаков см. в Атласе облаков (PDF).
T - Температура воздуха - температура, измеренная на высоте 2 м над землей.
Td - Температура точки росы - температура, при понижении до которой содержащийся в воздухе водяной пар достигнет насыщения.
f - Относительная влажность воздуха - влажноcть воздуха, измеренная на высоте 2 м над землей.
Te - Эффективная температура - температура, которую ощущает одетый по сезону человек в тени. Характеристика душности погоды. При расчете учитывается влияние влажности воздуха и скорости ветра на теплоощущения человека.
Tes - Эффективная температура на солнце - температура, которую ощущает человек, с поправкой на солнечный нагрев. Характеристика знойности погоды. Зависит от высоты солнца над горизонтом, облачности и скорости ветра. Ночью, в пасмурную погоду, а также при ветре 12 м/с и более поправка равна нулю.
P - Атмосферное давление - приведенное к уровню моря атмосферное давление.
Po - Атмосферное давление - измеренное на уровне метеостанции атмосферное давление.
Tmin - Минимальная температура - минимум температуры воздуха на высоте 2 м над землей.
Tmax - Максимальная температура - максимум температуры воздуха на высоте 2 м над землей.
R - Количество осадков - Количество выпавших осадков за период времени, мм. При наведении курсора мыши на число - период времени, за который выпало указанное количество осадков.
R24 - Количество осадков - Количество выпавших осадков за 24 часа, мм.
S - Снежный покров - Высота снежного покрова, см. При наведении курсора мыши на число - состояние снежного покрова и степень покрытия местности в баллах.